CAPE
1303 1390 1345 1201 1190 1165 963 779 803 858 794 731 821 864 782 806 847 839 816 801 890 1536 1570 1351 1734 1964 1722 1876 1828 1999 2170 2297 2547 2533 2985 2785 2588 2433 2231 2113 2004 1788 2094 1871 2320 2865 2966 2793 2725 2509 2221 2104 1789 1716 1919 1959 2130 2208 2158 2521 2158 2009 1947 1852 1767 1731 1460 1387 1384 1128 967 1158 781 846 1178 1335 1290 1264 1669 1768 1998 1695 1308 1176 660
1323 1377 1367 1228 1150 1111 939 781 778 783 717 690 650 692 696 710 747 827 819 816 710 1193 1436 1367 1698 1923 1800 1949 1981 1879 2074 2069 2579 2867 3185 2798 2611 2415 2370 2311 2131 2040 1850 1841 2016 2360 2384 2186 2050 1931 1747 2148 1858 1794 1916 1891 2036 2105 2638 2460 2053 1912 2026 1907 1760 1630 1371 1229 1180 706 850 600 567 547 960 1168 831 288 196 172 156 149 124 630 650
1441 1346 1306 1179 1102 1102 980 766 730 706 677 644 598 564 604 564 479 472 490 832 992 1002 1332 1420 1407 1708 1788 1946 1934 1908 1932 1961 2468 2818 3079 2856 2620 2471 2400 2200 1882 1855 1950 1600 1924 1871 1928 2084 1896 1741 1908 2131 1997 1988 1846 1823 1869 2035 1880 1794 1807 1835 1800 1754 1666 1490 1176 1068 807 640 639 525 395 274 316 326 166 41 105 92 103 66 43 45 250
1613 1431 1301 1177 1066 1036 966 784 701 698 642 604 560 511 513 527 468 485 522 702 780 1099 1126 1342 1400 1519 1626 1800 1826 1839 1879 1977 2478 2632 2939 2972 2715 2458 2294 2125 2123 2177 1680 1643 1809 1745 1742 1725 1617 1578 1834 2043 2005 1845 1815 1828 1890 1924 1835 1783 1689 1714 1720 1588 1357 1291 1101 889 656 583 538 387 44 218 194 146 120 86 40 29 17 20 15 17 16
1673 1563 1405 1263 1118 989 948 907 718 690 660 613 601 568 492 451 402 458 591 795 867 1057 1129 1138 1220 1489 1645 1753 1825 1780 2002 2164 2414 2543 2805 3140 3100 2857 2715 2564 2355 1849 1778 1935 1883 1947 2002 1887 1712 1487 1804 1927 1783 1667 1535 1463 1550 1480 1397 1300 1258 1396 1422 1314 1241 1121 946 845 573 451 426 410 257 172 144 114 64 9 3 10 5 0 0 5 12
1573 1556 1474 1339 1143 866 854 954 837 678 678 671 629 576 482 385 399 613 677 820 890 1021 1070 1294 1249 1230 1523 1684 1844 1975 2143 2418 2452 2621 2926 3138 3216 3108 2946 2702 2154 1902 1875 2041 2314 2117 1804 1662 1725 1824 1792 1502 1352 1155 1038 1035 937 868 982 1140 1195 1029 960 1040 1041 906 809 632 512 465 391 310 206 175 103 54 28 0 0 0 0 0 0 0 0
1257 1330 1338 1316 1130 825 680 752 816 852 920 684 648 574 530 474 436 612 736 783 788 941 879 1107 1279 1286 1417 1490 1660 1952 2324 2494 2464 2608 3008 3284 3170 3010 2844 2472 2074 2203 2350 2316 1993 1832 1738 1813 1791 1687 1692 1552 1259 1004 844 700 615 531 441 536 812 994 832 654 652 719 714 612 437 326 213 99 117 123 94 46 0 0 0 0 0 0 0 0 0
1207 1076 1089 1171 1096 1004 787 779 797 876 1028 1067 810 564 604 618 630 618 721 754 804 970 689 717 637 1156 1384 1372 1570 1995 2269 2443 2441 2438 2833 3332 3130 3045 2806 2244 2335 2404 2302 2053 1857 1762 1618 1489 1336 1282 1181 1067 916 754 628 563 476 439 346 226 650 855 698 452 447 466 479 461 471 366 227 159 83 60 54 0 0 0 0 0 0 0 0 0 0
1195 1195 1031 999 991 960 978 834 946 998 1070 1115 1094 832 673 692 645 658 644 715 882 846 820 841 714 940 1159 1260 1559 1871 1983 2232 2347 2263 3060 3294 3232 3069 2688 2317 2244 2080 1821 1683 1568 1463 1406 1266 1219 1117 1273 908 729 564 519 484 418 48 0 68 473 482 301 201 262 276 333 436 380 197 110 86 51 0 0 0 0 0 0 0 0 0 0 0 0
868 1146 1182 864 794 890 1352 1390 978 1045 1106 1133 1123 998 651 602 532 706 639 602 822 837 818 800 934 1006 1164 1439 1656 1837 1806 2180 2928 2982 3064 3005 2936 2812 2645 2118 1778 1612 1552 1460 1370 1252 1239 1338 1562 1110 813 602 535 428 418 224 9 0 0 0 0 0 92 92 195 225 318 328 144 33 74 0 0 0 0 0 0 0 0 0 0 0 0 0 0
890 964 1101 1172 1039 876 1459 2667 1522 878 924 975 990 964 788 608 559 512 440 434 674 694 697 726 773 823 1460 1840 1947 1921 1862 2178 3239 2779 2940 2925 2973 2851 2258 1911 1737 1562 1398 1327 1220 1149 944 810 648 561 585 512 363 320 168 19 7 0 27 0 0 0 169 170 120 10 12 70 24 0 0 0 0 0 0 0 0 0 0 0 0 0 0 0 0
999 1020 1032 1055 1201 1246 1480 2541 2680 1347 1497 1443 1511 1302 787 1003 797 822 296 282 341 562 579 590 720 1364 1767 1873 1805 1756 1819 2252 3003 2730 2837 2943 2777 2313 2012 1854 1608 1440 1297 1189 1104 879 761 723 602 545 440 359 315 0 42 0 0 0 0 0 0 0 0 4 0 0 0 0 0 0 0 0 0 0 0 0 0 0 0 0 0 0 0 0 0
1307 1201 1156 1152 1249 1355 1519 2306 2601 2001 1607 1547 1340 1260 1667 1412 1275 1240 1101 734 401 455 515 965 1445 1657 1616 1536 1503 1563 1725 2268 2874 2772 2561 2432 2294 2158 2002 1680 1386 1268 1226 1164 1059 875 795 724 627 563 499 326 250 219 0 0 0 0 0 0 0 0 0 0 0 0 0 0 0 0 0 0 0 0 0 0 0 0 0 0 0 0 0 0 0
1476 1558 1497 1505 1233 1110 1229 1504 2268 2250 1801 1484 867 1136 1176 1440 1316 1414 1724 1482 848 806 1185 1451 1520 1399 1275 1218 1273 1362 1575 2169 2607 2724 2680 2600 2318 1964 1656 1377 1301 1287 1204 1128 1013 873 732 746 640 480 362 267 206 147 47 0 0 0 0 0 0 0 0 0 0 0 0 0 0 0 0 0 0 0 0 0 0 0 0 0 0 0 0 0 0
996 1012 1252 1456 1292 1066 725 1325 1307 1744 1958 1787 1233 999 1088 1549 1384 1537 1495 1227 1100 1227 1319 1214 1113 1046 985 986 1049 1319 1649 2184 2448 2467 2385 2192 1911 1624 1333 1302 1218 1133 1018 990 949 827 708 634 565 454 354 256 171 151 1 0 0 0 0 0 0 0 0 0 0 0 0 0 0 0 0 0 0 0 0 0 0 0 0 0 0 0 0 0 0
851 835 760 1013 1285 1277 946 1046 1203 1396 1769 2012 1760 1082 1103 1463 1581 1590 1411 1198 1235 1196 1084 867 836 833 865 933 1067 1389 1729 2037 2238 2346 2294 2118 1835 1713 1562 1139 1059 970 883 781 730 661 622 549 473 414 297 215 171 44 0 0 0 0 0 0 0 0 0 0 0 0 0 0 0 0 0 0 0 0 0 0 0 0 0 0 0 0 0 0 0
1099 1040 1015 1059 1189 1186 1077 1360 1266 1133 1590 1946 2170 1959 1092 1340 1574 1664 1551 1265 1253 1134 937 759 708 746 807 956 1060 1279 1522 1736 1969 2112 2086 1989 1886 1532 1147 1058 922 832 844 810 722 614 547 470 394 322 202 200 88 13 8 8 0 0 0 4 0 0 0 0 0 0 0 0 0 0 0 0 0 0 0 0 0 0 0 0 0 0 0 0 0
1084 1121 1120 1088 1142 1083 1107 1088 1145 1247 1400 1541 1657 1896 1909 1481 1548 1605 1668 1483 1286 1133 907 784 787 816 828 1008 1196 1413 1754 1832 1909 1879 1844 1689 1412 1051 967 862 790 805 723 662 519 436 286 224 178 175 172 55 18 8 10 3 3 12 22 2 0 0 0 0 0 0 0 0 0 0 0 0 0 0 0 0 0 0 0 0 0 0 0 0 0
808 642 676 829 886 945 1011 1017 1054 1168 1256 1328 1441 1619 1802 1949 1518 1494 1380 1586 1607 1346 1156 1058 965 1024 1136 1299 1498 1404 1443 1302 1276 1241 1143 1066 1010 972 934 830 698 594 515 426 294 224 163 119 134 130 51 22 18 16 14 13 13 18 0 0 0 0 0 0 0 0 0 0 0 0 0 0 0 0 0 0 0 0 0 0 0 0 0 0 0
683 656 613 568 548 632 830 928 986 992 887 792 844 1042 1287 1493 1610 1702 1429 1120 1196 1716 1613 1445 1200 1139 1183 1204 1168 1060 934 895 1009 1018 1045 1064 1096 1024 868 569 458 374 314 261 163 111 120 113 89 45 27 22 20 24 16 0 0 0 0 0 0 0 0 0 0 0 0 0 0 0 0 0 0 0 0 0 0 0 0 0 0 0 0 0 0
600 643 695 717 686 645 605 640 638 669 721 710 665 604 627 791 1080 1340 1483 1482 1273 1329 1614 1528 1440 1316 1282 1257 1068 949 860 874 952 1024 967 946 950 654 372 228 183 148 136 116 114 88 89 78 32 17 28 38 17 4 0 0 0 0 0 0 0 0 0 0 0 0 0 0 0 0 0 0 0 0 0 0 0 0 0 0 0 0 0 0 0
596 576 578 620 602 528 524 469 380 379 371 391 481 579 558 588 677 811 1008 1165 1092 1181 1011 995 1039 1264 1137 1051 985 931 959 923 835 791 778 763 632 202 5 49 63 59 62 87 95 97 86 0 16 45 47 12 0 0 0 0 0 0 0 0 0 0 0 0 0 0 0 0 0 0 0 0 0 0 0 0 0 0 0 0 0 0 0 0 0
557 417 0 0 56 140 234 251 259 241 118 169 344 390 445 513 565 546 835 1060 1152 1010 914 796 851 781 733 729 664 827 857 903 608 698 606 395 176 103 89 87 98 110 132 137 104 53 38 28 16 17 2 0 0 0 0 0 0 0 0 0 0 0 0 0 0 0 0 0 0 0 0 0 0 0 0 0 0 0 0 0 0 0 8 3 0
572 467 1 0 0 61 0 21 184 176 149 123 55 32 288 397 432 344 598 928 1143 909 580 874 681 472 334 502 626 811 819 616 554 469 199 109 83 91 88 94 98 103 92 76 45 23 0 0 0 0 0 0 0 0 0 0 0 0 0 0 0 0 0 0 0 0 0 0 0 0 0 0 0 0 0 0 0 0 0 0 0 0 0 0 0
560 441 416 0 55 374 243 171 212 178 107 103 94 61 197 269 348 279 291 449 487 533 439 266 325 705 388 378 475 525 506 396 188 63 79 91 92 84 79 79 61 34 7 4 3 0 0 0 0 0 0 0 0 0 0 0 0 0 0 0 0 0 0 0 0 0 0 0 0 0 0 0 0 0 0 0 0 0 0 0 0 0 0 0 0
621 407 393 355 434 457 413 339 1 2 52 48 80 91 90 176 235 293 247 338 173 0 0 0 0 1 27 66 314 284 182 74 44 47 54 54 54 57 51 21 2 0 0 0 0 0 0 0 0 0 0 0 0 0 0 0 0 0 0 0 0 0 0 0 0 0 0 0 0 0 0 0 0 0 0 0 0 0 0 0 0 0 0 0 0
565 522 427 358 454 526 462 388 92 2 4 1 14 0 8 48 73 15 0 0 0 0 0 0 77 88 1 2 88 55 28 37 31 36 32 34 41 27 1 0 0 0 0 0 0 0 0 0 0 0 0 0 0 0 0 0 0 0 0 0 0 0 0 0 0 0 0 0 0 0 0 0 0 0 0 0 0 0 0 0 0 0 0 0 0
622 647 580 529 551 543 491 330 266 3 2 8 0 0 0 0 32 7 0 0 0 0 0 0 0 0 0 0 11 18 21 22 21 24 23 31 13 0 0 0 0 0 0 0 0 0 0 0 0 0 0 0 0 0 0 0 0 0 0 0 0 0 0 0 0 0 0 0 0 0 0 0 0 0 0 0 0 0 0 0 0 0 0 0 0
553 551 513 521 502 526 509 404 309 18 11 38 0 0 14 7 87 45 0 0 0 0 0 0 0 0 0 0 0 0 0 0 0 1 4 0 0 0 0 0 0 0 0 0 0 0 0 0 0 0 0 0 0 0 0 0 0 0 0 0 0 0 0 0 0 0 0 0 0 0 0 0 0 0 0 0 0 0 0 0 0 0 0 0 0
553 491 482 481 461 470 464 430 289 89 162 282 241 114 104 71 63 112 68 118 54 0 0 0 0 0 0 0 0 0 0 0 0 0 0 0 0 0 0 0 0 0 0 0 0 0 0 0 0 0 0 0 0 0 0 0 0 0 0 0 0 0 0 0 0 0 0 0 0 0 0 0 0 0 0 0 0 0 0 0 0 0 0 0 0
473 470 482 506 464 451 425 412 369 274 198 295 341 323 277 189 146 154 0 0 0 0 0 0 0 0 0 0 0 0 0 0 0 0 0 0 0 0 0 0 0 0 0 0 0 0 0 0 0 0 0 0 0 0 0 0 0 0 0 0 0 0 0 0 0 0 0 0 0 0 0 0 0 0 0 0 0 0 0 0 0 0 0 0 0
517 497 443 418 491 502 462 460 429 362 309 292 314 336 287 224 150 0 0 0 0 0 0 0 0 0 0 0 0 0 0 0 0 0 0 0 0 0 0 0 0 0 0 0 0 0 0 0 0 0 0 0 0 0 0 0 0 0 0 0 0 0 0 0 0 0 0 0 0 0 0 0 0 0 0 0 0 0 0 0 0 0 0 0 0
461 329 276 281 484 548 537 508 510 451 431 427 349 327 263 5 0 0 0 0 0 0 0 0 0 0 0 0 0 0 0 0 0 0 0 0 0 0 0 0 0 0 0 0 0 0 0 0 0 0 0 0 0 0 0 0 0 0 0 0 0 0 0 0 0 0 0 0 0 0 0 0 0 0 0 0 0 0 0 0 0 0 0 0 0
58 274 289 376 506 546 548 522 554 514 472 426 389 324 274 256 222 73 121 0 0 0 0 0 0 0 0 0 0 0 0 0 0 0 0 0 0 0 0 0 0 0 0 0 0 0 0 0 0 0 0 0 0 0 0 0 0 0 0 0 0 0 0 0 0 0 0 0 0 0 0 0 0 0 0 0 0 0 0 0 0 0 0 0 0
235 293 252 335 464 485 529 562 528 454 386 376 298 240 223 171 97 0 0 0 0 0 0 0 0 0 0 0 0 0 0 0 0 0 0 0 0 0 0 0 0 0 0 0 0 0 0 0 0 0 0 0 0 0 0 0 0 0 0 0 0 0 0 0 0 0 0 0 0 0 0 0 0 0 0 0 0 0 0 0 0 0 0 0 0
0 0 4 126 370 370 452 462 364 245 35 34 63 158 135 0 0 0 0 0 0 0 0 0 0 0 0 0 0 0 0 0 0 0 0 0 0 0 0 0 0 0 0 0 0 0 0 0 0 0 0 0 0 0 0 0 0 0 0 0 0 0 0 0 0 0 0 0 0 0 0 0 0 0 0 0 0 0 0 0 0 0 0 1 6
0 0 0 0 76 319 274 249 0 0 0 0 0 0 0 0 0 0 0 0 0 0 0 0 0 0 0 0 0 0 0 0 0 0 0 0 0 0 0 0 0 0 0 0 0 0 0 0 0 0 0 0 0 0 0 0 0 0 0 0 0 0 0 0 0 0 0 0 0 0 0 0 0 0 0 0 0 0 0 0 0 0 2 5 1
0 0 0 0 0 267 274 160 0 2 0 0 0 0 0 0 0 0 0 0 0 0 0 0 0 0 0 0 0 0 0 0 0 0 0 0 0 0 0 0 0 0 0 0 0 0 0 0 0 0 0 0 0 0 0 0 0 0 0 0 0 0 0 0 0 0 0 0 0 0 0 0 0 0 0 0 0 0 0 0 0 0 0 0 0
0 0 0 0 0 0 0 236 0 0 0 0 0 0 0 0 0 0 0 0 0 0 0 0 0 0 0 0 0 0 0 0 0 0 0 0 0 0 0 0 0 0 0 0 0 0 0 0 0 0 0 0 0 0 0 0 0 0 0 0 0 0 0 0 0 0 0 0 0 0 0 0 0 0 0 0 0 0 0 0 0 0 0 0 0
0 0 0 0 0 0 0 0 0 0 0 0 0 0 0 0 0 0 0 0 0 0 0 0 0 0 0 0 0 0 0 0 0 0 0 0 0 0 0 0 0 0 0 0 0 0 0 0 0 0 0 0 0 0 0 0 0 0 0 0 0 0 0 0 0 0 0 0 0 0 0 0 0 0 0 0 0 0 0 0 0 0 0 0 0
0 0 0 0 0 0 0 0 0 0 0 0 0 0 0 0 0 0 0 0 0 0 0 0 0 0 0 0 0 0 0 0 0 0 0 0 0 0 0 0 0 0 0 0 0 0 0 0 0 0 0 0 0 0 0 0 0 0 0 0 0 0 0 0 0 0 0 0 0 0 0 0 0 0 0 0 0 0 0 0 0 0 0 0 0
0 0 0 0 0 0 0 0 0 5 3 0 0 0 0 0 0 0 0 0 0 0 0 0 0 0 0 0 0 0 0 0 0 0 0 0 0 0 0 0 0 0 0 0 0 0 0 0 0 0 0 0 0 0 0 0 0 0 0 0 0 0 0 0 0 0 0 0 0 0 0 0 0 0 0 0 0 0 0 0 0 0 0 0 0
0 0 0 0 0 0 0 0 0 0 0 0 0 6 0 0 0 0 0 0 0 0 0 0 0 0 0 0 0 0 0 0 0 0 0 0 0 0 0 0 0 0 0 0 0 0 0 0 0 0 0 0 0 0 0 0 0 0 0 0 0 0 0 0 0 0 0 0 0 0 0 0 0 0 0 0 0 0 0 0 0 0 0 0 0
0 0 0 0 0 0 0 0 0 0 0 4 8 0 0 0 0 0 0 0 0 0 0 0 0 0 0 0 0 0 0 0 0 0 0 0 0 0 0 0 0 0 0 0 0 0 0 0 0 0 0 0 0 0 0 0 0 0 0 0 0 0 0 0 0 0 0 0 0 0 0 0 0 0 0 0 0 0 0 0 0 0 0 0 0
0 0 0 0 0 0 0 0 0 0 0 0 0 0 0 0 0 0 0 0 0 0 0 0 0 0 0 0 0 0 0 0 0 0 0 0 0 0 0 0 0 0 0 0 0 0 0 0 0 0 0 0 0 0 0 0 0 0 0 0 0 0 0 0 0 0 0 0 0 0 0 0 0 0 0 0 0 0 0 0 0 0 0 0 0
0 0 0 0 0 0 0 0 0 0 0 0 0 0 0 0 0 0 0 0 0 0 0 0 0 0 0 0 0 0 0 0 0 0 0 0 0 0 0 0 0 0 0 0 0 0 0 0 0 0 0 0 0 0 0 0 0 0 0 0 0 0 0 0 0 0 0 0 0 0 0 0 0 0 0 0 0 0 0 0 0 0 0 0 0
0 0 0 0 0 0 0 0 0 0 0 0 0 0 0 0 0 0 0 0 0 0 0 0 0 0 0 0 0 0 0 0 0 0 0 0 0 0 0 0 0 0 0 0 0 0 0 0 0 0 0 0 0 0 0 0 0 0 0 0 0 0 0 0 0 0 0 0 0 0 0 0 0 0 0 0 0 0 0 0 0 0 0 0 0
0 0 0 0 0 0 0 0 0 0 0 0 0 0 0 0 0 0 0 0 0 0 0 0 0 0 0 0 0 0 0 0 0 0 0 0 0 0 0 0 0 0 0 0 2 8 5 5 3 1 0 0 0 0 0 0 0 0 0 0 0 0 0 0 0 0 0 0 0 0 0 0 0 0 0 0 0 0 0 0 0 0 0 0 0
0 0 0 0 0 0 0 0 0 0 0 0 0 0 0 0 0 0 0 0 0 0 0 0 0 0 0 0 0 0 0 0 0 0 0 0 0 0 1 1 0 1 7 10 10 10 9 8 5 4 4 1 0 0 0 0 0 0 0 0 0 0 0 0 0 0 0 0 0 0 0 0 0 0 0 0 0 0 0 0 0 0 0 0 0
0 0 0 0 0 0 0 0 0 0 0 0 0 0 0 0 0 0 0 0 0 0 0 0 0 0 0 0 0 0 0 0 0 0 0 1 2 4 4 4 3 12 14 14 7 8 10 8 6 6 6 2 0 0 0 0 0 0 0 0 0 0 0 0 0 0 0 0 0 0 0 0 0 0 0 0 0 0 0 0 0 0 0 0 0
0 0 0 0 0 0 0 0 0 0 0 0 0 0 0 0 0 0 0 0 0 0 0 0 0 0 0 0 0 0 0 0 0 0 0 2 8 9 5 4 8 16 20 19 12 7 6 4 2 5 5 0 0 0 0 0 0 0 0 0 0 0 0 0 0 0 0 0 0 0 0 0 0 0 0 0 0 0 0 5 0 0 0 0 0
Wind_Speed
8 6 6 4 4 5 5 6 6 8 8 9 8 7 8 8 6 6 7 5 6 6 6 6 5 5 5 5 4 4 5 5 6 7 7 8 9 10 11 11 10 9 10 9 10 11 13 13 10 9 8 10 10 9 10 10 10 12 12 12 12 12 15 16 17 15 15 16 17 15 15 15 17 16 20 21 22 23 24 25 26 26 27 29 31
10 9 8 7 5 5 5 6 6 7 7 8 8 8 8 9 7 7 6 6 7 6 7 8 7 7 7 5 5 4 4 4 6 7 8 9 9 10 10 11 11 11 11 9 11 14 12 11 11 9 9 10 11 11 10 11 12 13 13 14 14 13 13 16 16 17 18 17 17 17 20 19 21 18 23 26 26 26 27 25 25 27 28 29 32
12 11 10 9 7 6 6 6 6 6 5 6 6 7 8 7 7 6 6 8 8 9 9 9 8 8 8 7 6 5 4 5 6 7 8 8 8 9 10 10 11 11 10 11 13 12 12 12 11 10 10 12 12 11 11 13 14 16 17 17 17 16 16 17 18 19 22 21 19 21 21 22 23 19 22 26 28 nan 29 nan 27 nan nan nan 31
12 11 11 11 10 9 8 7 6 6 5 6 6 6 7 7 7 6 6 8 8 9 9 9 10 9 8 7 7 7 7 7 8 8 8 8 9 10 11 11 11 11 11 13 13 13 12 13 12 11 12 13 13 13 13 14 16 18 18 18 19 19 19 20 20 21 21 26 22 24 23 25 nan 21 22 26 27 nan nan nan nan nan nan nan nan
14 13 12 11 10 10 9 8 7 7 6 7 5 6 6 7 7 7 7 8 9 9 9 9 10 10 9 9 9 9 8 9 10 9 10 10 11 12 13 13 13 13 14 14 14 14 14 14 12 11 12 14 14 14 14 17 17 18 19 19 19 19 20 21 23 24 26 28 27 24 25 27 25 25 24 26 nan nan nan nan nan nan nan nan nan
16 17 15 13 10 9 10 10 8 8 8 8 7 7 7 7 8 8 8 8 9 9 9 10 10 10 10 11 12 11 11 11 10 10 11 12 13 14 16 15 15 16 16 16 15 15 16 15 14 14 16 17 16 15 15 16 18 19 18 19 19 21 23 25 26 27 30 30 29 29 25 27 29 29 26 nan nan nan nan nan nan nan nan nan nan
39 33 26 18 11 9 11 11 11 11 10 9 9 9 9 8 9 10 10 10 11 15 13 16 14 11 11 14 13 13 13 13 12 12 13 14 15 16 17 18 19 19 18 17 16 16 17 16 17 18 19 18 18 18 18 18 19 19 19 20 21 25 26 27 30 32 32 34 32 30 30 nan 32 32 nan nan nan nan nan nan nan nan nan nan nan
33 26 24 19 14 10 11 13 14 13 13 11 10 10 11 12 12 13 14 13 13 14 13 11 9 10 14 15 15 15 15 15 15 15 15 15 16 18 19 20 21 21 20 19 18 18 19 19 19 20 20 20 21 22 21 20 20 22 21 23 25 29 31 32 33 34 34 34 34 33 31 32 nan nan nan nan nan nan nan nan nan nan nan nan nan
21 18 18 17 15 18 18 17 16 15 14 13 12 12 13 14 16 16 15 14 14 13 14 13 13 10 16 17 18 17 17 18 17 17 18 18 19 21 21 22 23 23 23 22 21 21 22 23 22 22 25 31 32 30 28 25 23 nan nan nan 31 33 34 34 35 37 37 37 37 35 36 nan nan nan nan nan nan nan nan nan nan nan nan nan nan
17 15 16 19 21 22 21 19 18 17 16 15 14 14 15 16 17 18 16 15 15 17 16 15 16 18 20 20 21 21 20 20 19 21 21 22 23 23 24 24 25 25 26 26 25 24 24 24 27 37 37 36 37 37 35 33 nan nan nan nan nan nan nan nan 37 38 39 40 37 nan nan nan nan nan nan nan nan nan nan nan nan nan nan nan nan
15 14 14 19 22 21 21 22 23 21 19 18 17 17 17 17 17 18 18 17 16 18 19 17 18 19 20 22 23 23 23 22 23 25 26 28 27 26 26 25 25 26 27 27 28 28 29 29 29 34 36 37 37 38 36 nan nan nan nan nan nan nan 38 40 38 nan nan nan nan nan nan nan nan nan nan nan nan nan nan nan nan nan nan nan nan
18 16 16 17 18 20 21 26 28 29 30 31 31 27 22 21 20 19 19 18 18 21 22 21 21 22 22 23 24 24 24 24 26 27 28 30 29 28 27 27 26 26 27 28 29 30 31 31 30 30 31 33 32 nan nan nan nan nan nan nan nan nan nan nan nan nan nan nan nan nan nan nan nan nan nan nan nan nan nan nan nan nan nan nan nan
23 21 19 18 19 21 24 28 35 39 37 33 33 35 31 25 24 24 23 23 24 24 26 26 26 26 26 25 26 27 27 25 28 31 32 33 34 33 30 29 29 28 29 30 31 31 31 33 32 31 32 38 33 32 nan nan nan nan nan nan nan nan nan nan nan nan nan nan nan nan nan nan nan nan nan nan nan nan nan nan nan nan nan nan nan
33 31 30 27 27 27 27 34 40 40 36 33 33 34 31 29 29 29 30 30 29 29 29 30 30 30 29 29 29 30 31 30 32 34 36 37 37 35 33 33 33 32 33 32 32 33 33 34 35 34 33 33 34 36 nan nan nan nan nan nan nan nan nan nan nan nan nan nan nan nan nan nan nan nan nan nan nan nan nan nan nan nan nan nan nan
25 22 21 25 30 31 34 39 39 37 34 32 31 32 37 36 31 28 29 30 31 31 32 32 32 32 32 33 33 32 32 36 37 40 40 40 40 38 37 37 37 36 36 35 34 35 35 35 36 36 35 35 34 38 nan nan nan nan nan nan nan nan nan nan nan nan nan nan nan nan nan nan nan nan nan nan nan nan nan nan nan nan nan nan nan
24 21 24 30 33 33 36 39 37 31 29 31 30 32 33 32 31 30 31 32 32 32 33 34 34 35 35 35 36 35 34 36 41 45 46 45 45 39 39 40 40 40 39 38 37 36 36 37 38 38 38 38 41 nan nan nan nan nan nan nan nan nan nan nan nan nan nan nan nan nan nan nan nan nan nan nan nan nan nan nan nan nan nan nan nan
24 24 27 31 33 34 33 33 30 25 25 24 24 27 30 31 32 33 33 33 34 32 34 34 36 38 38 37 39 39 38 38 43 47 49 50 45 40 40 40 41 42 40 39 38 37 38 38 39 41 42 41 nan nan nan nan nan nan nan nan nan nan nan nan nan nan nan nan nan nan nan nan nan nan nan nan nan nan nan nan nan nan nan nan nan
22 23 24 28 30 30 29 27 26 23 20 19 20 19 20 24 27 31 33 36 36 35 36 38 38 38 39 39 39 43 42 43 49 51 52 50 47 44 42 43 43 43 41 39 38 38 39 46 44 43 43 nan nan nan nan nan nan nan nan nan nan nan nan nan nan nan nan nan nan nan nan nan nan nan nan nan nan nan nan nan nan nan nan nan nan
25 24 25 27 29 31 28 25 24 23 19 17 18 18 16 18 26 31 32 34 37 37 37 39 40 39 39 42 44 47 46 46 51 54 55 54 49 45 44 45 46 45 44 42 41 41 41 42 44 42 nan nan nan nan nan nan nan nan nan nan nan nan nan nan nan nan nan nan nan nan nan nan nan nan nan nan nan nan nan nan nan nan nan nan nan
24 23 23 24 27 29 28 26 24 25 24 22 22 23 24 25 26 28 30 31 33 32 35 36 41 41 41 43 43 45 49 48 53 60 59 57 54 47 45 48 48 47 46 47 46 43 41 39 nan nan nan nan nan nan nan nan nan nan nan nan nan nan nan nan nan nan nan nan nan nan nan nan nan nan nan nan nan nan nan nan nan nan nan nan nan
19 19 18 18 20 24 26 27 31 34 33 29 28 27 25 25 25 27 29 29 31 31 30 32 38 40 41 41 40 40 45 49 52 60 61 60 57 48 41 47 48 46 46 46 45 nan nan nan nan nan nan nan nan nan nan nan nan nan nan nan nan nan nan nan nan nan nan nan nan nan nan nan nan nan nan nan nan nan nan nan nan nan nan nan nan
18 18 18 18 19 21 24 28 31 32 32 32 31 29 27 26 26 28 30 28 28 29 28 29 31 34 36 37 37 37 40 48 48 54 57 57 55 51 nan nan nan nan nan nan nan nan nan nan nan nan nan nan nan nan nan nan nan nan nan nan nan nan nan nan nan nan nan nan nan nan nan nan nan nan nan nan nan nan nan nan nan nan nan nan nan
22 21 nan nan nan 21 24 27 28 28 30 31 31 31 29 29 28 29 30 30 30 30 28 27 27 29 33 36 37 38 37 37 45 46 48 49 50 51 nan nan nan 45 46 46 44 nan nan nan nan nan nan nan nan nan nan nan nan nan nan nan nan nan nan nan nan nan nan nan nan nan nan nan nan nan nan nan nan nan nan nan nan nan nan nan nan
21 22 nan nan nan nan nan nan 28 27 27 29 nan nan 29 28 28 28 29 27 26 27 27 27 28 31 37 39 40 41 41 39 42 45 44 47 nan nan nan nan nan 46 nan nan nan nan nan nan nan nan nan nan nan nan nan nan nan nan nan nan nan nan nan nan nan nan nan nan nan nan nan nan nan nan nan nan nan nan nan nan nan nan nan nan nan
21 21 20 nan nan 21 25 28 29 28 26 26 nan nan 26 25 26 26 27 28 28 27 23 29 39 47 43 50 47 44 43 40 37 nan nan nan nan nan nan nan nan nan nan nan nan nan nan nan nan nan nan nan nan nan nan nan nan nan nan nan nan nan nan nan nan nan nan nan nan nan nan nan nan nan nan nan nan nan nan nan nan nan nan nan nan
21 21 20 19 18 20 24 27 nan nan nan nan nan nan nan 24 24 23 24 25 27 nan nan nan nan nan nan nan 52 41 35 nan nan nan nan nan nan nan nan nan nan nan nan nan nan nan nan nan nan nan nan nan nan nan nan nan nan nan nan nan nan nan nan nan nan nan nan nan nan nan nan nan nan nan nan nan nan nan nan nan nan nan nan nan nan
21 20 20 19 18 19 21 22 nan nan nan nan nan nan nan nan nan nan nan nan nan nan nan nan nan nan nan nan nan nan nan nan nan nan nan nan nan nan nan nan nan nan nan nan nan nan nan nan nan nan nan nan nan nan nan nan nan nan nan nan nan nan nan nan nan nan nan nan nan nan nan nan nan nan nan nan nan nan nan nan nan nan nan nan nan
19 20 21 19 19 18 19 23 23 nan nan nan nan nan nan nan nan nan nan nan nan nan nan nan nan nan nan nan nan nan nan nan nan nan nan nan nan nan nan nan nan nan nan nan nan nan nan nan nan nan nan nan nan nan nan nan nan nan nan nan nan nan nan nan nan nan nan nan nan nan nan nan nan nan nan nan nan nan nan nan nan nan nan nan nan
18 20 19 18 17 17 18 18 18 nan nan nan nan nan nan nan nan nan nan nan nan nan nan nan nan nan nan nan nan nan nan nan nan nan nan nan nan nan nan nan nan nan nan nan nan nan nan nan nan nan nan nan nan nan nan nan nan nan nan nan nan nan nan nan nan nan nan nan nan nan nan nan nan nan nan nan nan nan nan nan nan nan nan nan nan
17 16 16 17 17 17 17 17 17 nan 20 21 23 26 32 nan nan 29 nan 28 nan nan nan nan nan nan nan nan nan nan nan nan nan nan nan nan nan nan nan nan nan nan nan nan nan nan nan nan nan nan nan nan nan nan nan nan nan nan nan nan nan nan nan nan nan nan nan nan nan nan nan nan nan nan nan nan nan nan nan nan nan nan nan nan nan
16 16 16 16 16 16 17 17 17 18 18 18 19 21 23 28 35 34 nan nan nan nan nan nan nan nan nan nan nan nan nan nan nan nan nan nan nan nan nan nan nan nan nan nan nan nan nan nan nan nan nan nan nan nan nan nan nan nan nan nan nan nan nan nan nan nan nan nan nan nan nan nan nan nan nan nan nan nan nan nan nan nan nan nan nan
17 16 17 16 17 17 17 18 17 18 18 17 17 17 19 20 22 nan nan nan nan nan nan nan nan nan nan nan nan nan nan nan nan nan nan nan nan nan nan nan nan nan nan nan nan nan nan nan nan nan nan nan nan nan nan nan nan nan nan nan nan nan nan nan nan nan nan nan nan nan nan nan nan nan nan nan nan nan nan nan nan nan nan nan nan
18 17 17 17 18 18 18 18 19 19 18 17 17 17 17 nan nan nan nan nan nan nan nan nan nan nan nan nan nan nan nan nan nan nan nan nan nan nan nan nan nan nan nan nan nan nan nan nan nan nan nan nan nan nan nan nan nan nan nan nan nan nan nan nan nan nan nan nan nan nan nan nan nan nan nan nan nan nan nan nan nan nan nan nan nan
nan 17 17 18 19 18 17 17 19 20 19 17 17 18 18 19 19 nan 21 nan nan nan nan nan nan nan nan nan nan nan nan nan nan nan nan nan nan nan nan nan nan nan nan nan nan nan nan nan nan nan nan nan nan nan nan nan nan nan nan nan nan nan nan nan nan nan nan nan nan nan nan nan nan nan nan nan nan nan nan nan nan nan nan nan nan
19 18 21 20 20 19 18 17 17 19 19 19 19 20 21 20 nan nan nan nan nan nan nan nan nan nan nan nan nan nan nan nan nan nan nan nan nan nan nan nan nan nan nan nan nan nan nan nan nan nan nan nan nan nan nan nan nan nan nan nan nan nan nan nan nan nan nan nan nan nan nan nan nan nan nan nan nan nan nan nan nan nan nan nan nan
nan nan nan 20 20 19 18 16 17 18 nan nan nan 23 23 nan nan nan nan nan nan nan nan nan nan nan nan nan nan nan nan nan nan nan nan nan nan nan nan nan nan nan nan nan nan nan nan nan nan nan nan nan nan nan nan nan nan nan nan nan nan nan nan nan nan nan nan nan nan nan nan nan nan nan nan nan nan nan nan nan nan nan nan nan nan
nan nan nan nan nan 19 19 19 nan nan nan nan nan nan nan nan nan nan nan nan nan nan nan nan nan nan nan nan nan nan nan nan nan nan nan nan nan nan nan nan nan nan nan nan nan nan nan nan nan nan nan nan nan nan nan nan nan nan nan nan nan nan nan nan nan nan nan nan nan nan nan nan nan nan nan nan nan nan nan nan nan nan nan nan nan
nan nan nan nan nan 21 21 21 nan nan nan nan nan nan nan nan nan nan nan nan nan nan nan nan nan nan nan nan nan nan nan nan nan nan nan nan nan nan nan nan nan nan nan nan nan nan nan nan nan nan nan nan nan nan nan nan nan nan nan nan nan nan nan nan nan nan nan nan nan nan nan nan nan nan nan nan nan nan nan nan nan nan nan nan nan
nan nan nan nan nan nan nan 22 nan nan nan nan nan nan nan nan nan nan nan nan nan nan nan nan nan nan nan nan nan nan nan nan nan nan nan nan nan nan nan nan nan nan nan nan nan nan nan nan nan nan nan nan nan nan nan nan nan nan nan nan nan nan nan nan nan nan nan nan nan nan nan nan nan nan nan nan nan nan nan nan nan nan nan nan nan
nan nan nan nan nan nan nan nan nan nan nan nan nan nan nan nan nan nan nan nan nan nan nan nan nan nan nan nan nan nan nan nan nan nan nan nan nan nan nan nan nan nan nan nan nan nan nan nan nan nan nan nan nan nan nan nan nan nan nan nan nan nan nan nan nan nan nan nan nan nan nan nan nan nan nan nan nan nan nan nan nan nan nan nan nan
nan nan nan nan nan nan nan nan nan nan nan nan nan nan nan nan nan nan nan nan nan nan nan nan nan nan nan nan nan nan nan nan nan nan nan nan nan nan nan nan nan nan nan nan nan nan nan nan nan nan nan nan nan nan nan nan nan nan nan nan nan nan nan nan nan nan nan nan nan nan nan nan nan nan nan nan nan nan nan nan nan nan nan nan nan
nan nan nan nan nan nan nan nan nan nan nan nan nan nan nan nan nan nan nan nan nan nan nan nan nan nan nan nan nan nan nan nan nan nan nan nan nan nan nan nan nan nan nan nan nan nan nan nan nan nan nan nan nan nan nan nan nan nan nan nan nan nan nan nan nan nan nan nan nan nan nan nan nan nan nan nan nan nan nan nan nan nan nan nan nan
nan nan nan nan nan nan nan nan nan nan nan nan nan nan nan nan nan nan nan nan nan nan nan nan nan nan nan nan nan nan nan nan nan nan nan nan nan nan nan nan nan nan nan nan nan nan nan nan nan nan nan nan nan nan nan nan nan nan nan nan nan nan nan nan nan nan nan nan nan nan nan nan nan nan nan nan nan nan nan nan nan nan nan nan nan
nan nan nan nan nan nan nan nan nan nan nan nan nan nan nan nan nan nan nan nan nan nan nan nan nan nan nan nan nan nan nan nan nan nan nan nan nan nan nan nan nan nan nan nan nan nan nan nan nan nan nan nan nan nan nan nan nan nan nan nan nan nan nan nan nan nan nan nan nan nan nan nan nan nan nan nan nan nan nan nan nan nan nan nan nan
nan nan nan nan nan nan nan nan nan nan nan nan nan nan nan nan nan nan nan nan nan nan nan nan nan nan nan nan nan nan nan nan nan nan nan nan nan nan nan nan nan nan nan nan nan nan nan nan nan nan nan nan nan nan nan nan nan nan nan nan nan nan nan nan nan nan nan nan nan nan nan nan nan nan nan nan nan nan nan nan nan nan nan nan nan
nan nan nan nan nan nan nan nan nan nan nan nan nan nan nan nan nan nan nan nan nan nan nan nan nan nan nan nan nan nan nan nan nan nan nan nan nan nan nan nan nan nan nan nan nan nan nan nan nan nan nan nan nan nan nan nan nan nan nan nan nan nan nan nan nan nan nan nan nan nan nan nan nan nan nan nan nan nan nan nan nan nan nan nan nan
nan nan nan nan nan nan nan nan nan nan nan nan nan nan nan nan nan nan nan nan nan nan nan nan nan nan nan nan nan nan nan nan nan nan nan nan nan nan nan nan nan nan nan nan nan nan nan nan nan nan nan nan nan nan nan nan nan nan nan nan nan nan nan nan nan nan nan nan nan nan nan nan nan nan nan nan nan nan nan nan nan nan nan nan nan
nan nan nan nan nan nan nan nan nan nan nan nan nan nan nan nan nan nan nan nan nan nan nan nan nan nan nan nan nan nan nan nan nan nan nan nan nan nan nan nan nan nan nan nan nan nan nan nan nan nan nan nan nan nan nan nan nan nan nan nan nan nan nan nan nan nan nan nan nan nan nan nan nan nan nan nan nan nan nan nan nan nan nan nan nan
nan nan nan nan nan nan nan nan nan nan nan nan nan nan nan nan nan nan nan nan nan nan nan nan nan nan nan nan nan nan nan nan nan nan nan nan nan nan nan nan nan nan nan nan nan nan nan nan nan nan nan nan nan nan nan nan nan nan nan nan nan nan nan nan nan nan nan nan nan nan nan nan nan nan nan nan nan nan nan nan nan nan nan nan nan
nan nan nan nan nan nan nan nan nan nan nan nan nan nan nan nan nan nan nan nan nan nan nan nan nan nan nan nan nan nan nan nan nan nan nan nan nan nan nan nan nan nan nan nan nan nan nan nan nan nan nan nan nan nan nan nan nan nan nan nan nan nan nan nan nan nan nan nan nan nan nan nan nan nan nan nan nan nan nan nan nan nan nan nan nan
nan nan nan nan nan nan nan nan nan nan nan nan nan nan nan nan nan nan nan nan nan nan nan nan nan nan nan nan nan nan nan nan nan nan nan nan nan nan nan nan nan nan nan nan nan nan nan nan nan nan nan nan nan nan nan nan nan nan nan nan nan nan nan nan nan nan nan nan nan nan nan nan nan nan nan nan nan nan nan nan nan nan nan nan nan
Wind_Direction
285 283 281 286 275 279 275 260 255 249 246 244 241 239 241 240 235 224 222 217 223 236 241 240 242 243 244 238 242 243 243 237 234 236 235 235 237 241 242 242 242 238 243 236 226 235 239 242 241 239 241 252 252 252 257 264 267 266 270 275 279 282 290 295 302 304 299 290 289 292 292 297 296 298 302 301 299 298 298 300 303 304 306 306 306
273 272 274 282 287 273 278 267 259 249 255 251 244 238 237 239 238 234 233 215 219 230 238 241 235 241 243 235 221 229 238 252 245 245 245 243 242 246 254 253 249 247 245 243 235 240 249 251 247 248 252 269 263 259 266 270 269 271 276 281 282 283 291 297 305 304 298 286 284 288 287 285 290 287 294 295 296 297 295 297 300 301 302 304 306
273 266 269 273 280 272 271 273 267 263 264 250 246 240 234 235 239 244 244 233 226 226 231 238 235 232 231 226 219 212 219 234 245 251 253 259 263 256 255 260 261 259 253 248 247 253 252 257 259 260 261 265 268 268 269 270 272 278 279 281 285 287 288 295 300 300 298 290 288 287 284 284 285 288 289 293 296 nan 297 nan 298 nan nan nan 302
267 263 263 266 268 262 265 265 272 271 264 251 248 242 238 233 240 242 241 242 242 234 236 236 233 234 233 226 223 220 218 220 230 242 256 263 262 263 259 259 259 262 261 257 259 260 268 267 265 264 267 274 274 273 271 271 274 280 284 285 287 288 290 289 293 295 292 291 284 290 292 288 nan 292 293 292 295 nan nan nan nan nan nan nan nan
264 263 260 263 264 261 259 258 261 263 259 246 246 245 239 237 235 238 238 242 250 248 242 240 240 242 244 243 235 230 232 232 231 232 240 249 259 261 262 262 263 263 263 263 265 271 275 277 276 273 276 280 277 274 273 273 278 281 285 287 287 289 289 292 291 292 296 296 298 294 297 293 294 293 288 292 nan nan nan nan nan nan nan nan nan
259 261 254 249 249 260 253 250 253 257 256 249 245 240 237 238 239 238 242 245 250 252 250 245 247 248 246 250 250 243 238 238 240 243 249 251 253 256 260 263 263 263 265 263 266 269 274 276 280 280 282 284 284 282 278 277 277 276 278 282 289 291 290 292 294 293 293 294 296 294 291 293 291 290 289 nan nan nan nan nan nan nan nan nan nan
228 224 223 228 246 263 256 255 253 247 245 246 245 243 239 238 244 246 251 253 255 249 229 232 215 239 250 251 254 251 245 242 242 243 248 255 259 260 258 256 258 259 259 264 264 267 268 268 271 273 278 283 285 282 278 277 281 282 283 287 289 296 293 290 291 291 292 293 291 292 292 nan 289 290 nan nan nan nan nan nan nan nan nan nan nan
244 249 256 248 225 242 270 270 266 261 251 245 247 252 248 240 241 246 251 257 256 262 262 258 251 224 246 253 256 254 253 251 248 247 251 257 259 260 261 263 263 261 262 262 263 263 265 266 268 270 273 275 277 277 279 283 284 282 279 284 287 291 289 290 290 290 290 289 289 289 288 288 nan nan nan nan nan nan nan nan nan nan nan nan nan
264 258 266 270 267 257 250 246 254 264 268 261 253 249 248 244 241 245 250 253 253 260 264 271 273 270 255 256 257 257 259 259 256 257 257 256 257 259 260 264 267 268 265 264 263 264 265 267 269 272 275 273 273 275 278 281 284 nan nan nan 286 287 289 289 291 291 290 290 289 290 289 nan nan nan nan nan nan nan nan nan nan nan nan nan nan
293 278 267 260 256 252 255 257 256 255 262 270 266 258 250 246 247 246 251 257 256 254 255 256 254 254 252 253 256 258 259 259 266 280 273 266 262 259 259 262 265 269 270 269 268 268 268 269 273 276 274 274 274 275 276 277 nan nan nan nan nan nan nan nan 290 291 291 290 289 nan nan nan nan nan nan nan nan nan nan nan nan nan nan nan nan
273 275 270 259 257 266 270 263 259 258 258 260 261 257 253 251 252 253 255 257 263 261 261 261 255 255 257 259 259 258 259 259 276 279 278 276 267 266 265 264 265 268 271 273 273 270 267 267 269 272 273 272 273 273 275 nan nan nan nan nan nan nan 292 290 289 nan nan nan nan nan nan nan nan nan nan nan nan nan nan nan nan nan nan nan nan
267 268 267 260 260 269 270 261 255 252 248 245 240 236 240 252 251 256 257 260 256 258 261 263 262 261 257 259 259 258 257 262 277 278 276 275 271 267 266 267 268 270 271 271 271 271 271 270 269 269 271 273 275 nan nan nan nan nan nan nan nan nan nan nan nan nan nan nan nan nan nan nan nan nan nan nan nan nan nan nan nan nan nan nan nan
247 245 249 258 267 272 270 265 255 250 254 256 257 251 237 234 250 251 253 253 255 257 257 261 263 264 264 263 260 259 257 263 272 275 275 275 275 270 267 268 270 270 269 271 271 271 271 271 269 266 270 273 273 274 nan nan nan nan nan nan nan nan nan nan nan nan nan nan nan nan nan nan nan nan nan nan nan nan nan nan nan nan nan nan nan
232 225 222 228 238 242 244 250 252 253 252 250 253 255 251 241 233 241 247 251 256 258 261 266 265 266 268 268 264 263 264 267 271 272 273 275 276 272 269 271 270 270 270 270 269 270 271 272 272 271 270 271 273 275 nan nan nan nan nan nan nan nan nan nan nan nan nan nan nan nan nan nan nan nan nan nan nan nan nan nan nan nan nan nan nan
262 262 256 248 242 240 241 248 256 255 257 254 245 243 243 243 241 239 249 257 261 263 265 266 267 268 268 266 265 265 266 277 279 278 276 275 274 271 270 270 270 269 269 268 268 269 270 271 272 274 274 275 276 279 nan nan nan nan nan nan nan nan nan nan nan nan nan nan nan nan nan nan nan nan nan nan nan nan nan nan nan nan nan nan nan
253 255 257 255 257 251 253 260 264 268 266 256 249 246 252 258 257 248 248 248 249 257 260 265 268 267 267 268 267 265 264 275 278 280 279 276 274 268 269 270 270 268 268 268 270 270 271 274 275 277 278 278 280 nan nan nan nan nan nan nan nan nan nan nan nan nan nan nan nan nan nan nan nan nan nan nan nan nan nan nan nan nan nan nan nan
249 245 242 248 252 258 258 266 268 269 267 267 262 253 253 254 256 255 259 261 264 265 264 261 261 265 266 266 268 267 267 273 277 278 278 277 271 269 268 266 268 269 269 270 271 273 276 278 280 281 280 280 nan nan nan nan nan nan nan nan nan nan nan nan nan nan nan nan nan nan nan nan nan nan nan nan nan nan nan nan nan nan nan nan nan
266 261 256 252 253 260 266 273 274 271 264 263 262 256 255 257 259 259 260 266 268 265 262 261 259 261 266 268 270 271 270 275 278 278 277 276 274 272 270 269 269 271 271 269 271 274 279 283 279 280 282 nan nan nan nan nan nan nan nan nan nan nan nan nan nan nan nan nan nan nan nan nan nan nan nan nan nan nan nan nan nan nan nan nan nan
266 265 263 262 259 259 264 271 277 278 276 272 271 272 270 267 262 262 258 253 254 259 264 265 258 254 261 268 274 274 275 278 281 279 277 275 271 269 270 270 271 272 273 270 269 272 274 275 275 275 nan nan nan nan nan nan nan nan nan nan nan nan nan nan nan nan nan nan nan nan nan nan nan nan nan nan nan nan nan nan nan nan nan nan nan
260 262 264 265 265 267 269 274 279 277 272 269 267 269 266 267 277 280 275 268 265 261 263 265 264 257 257 266 275 279 280 279 280 280 276 273 270 268 270 271 271 272 272 273 273 271 271 269 nan nan nan nan nan nan nan nan nan nan nan nan nan nan nan nan nan nan nan nan nan nan nan nan nan nan nan nan nan nan nan nan nan nan nan nan nan
251 253 255 255 257 259 258 260 260 261 264 268 264 264 268 273 271 268 271 272 273 271 273 271 267 261 259 265 271 276 279 279 277 277 275 273 271 269 270 271 270 270 271 270 270 nan nan nan nan nan nan nan nan nan nan nan nan nan nan nan nan nan nan nan nan nan nan nan nan nan nan nan nan nan nan nan nan nan nan nan nan nan nan nan nan
254 255 256 253 251 251 252 254 258 261 262 263 262 259 257 262 262 254 258 260 267 271 270 270 271 268 266 268 271 270 276 277 269 269 270 270 269 266 nan nan nan nan nan nan nan nan nan nan nan nan nan nan nan nan nan nan nan nan nan nan nan nan nan nan nan nan nan nan nan nan nan nan nan nan nan nan nan nan nan nan nan nan nan nan nan
255 256 nan nan nan 246 247 250 254 258 260 260 261 258 256 257 256 256 252 249 250 252 252 255 266 269 264 264 261 263 262 260 262 261 265 263 261 261 nan nan nan 270 273 273 272 nan nan nan nan nan nan nan nan nan nan nan nan nan nan nan nan nan nan nan nan nan nan nan nan nan nan nan nan nan nan nan nan nan nan nan nan nan nan nan nan
257 256 nan nan nan nan nan nan 246 249 254 257 nan nan 256 257 257 255 253 252 252 254 254 249 253 260 268 264 256 246 245 243 247 253 258 261 nan nan nan nan nan 268 nan nan nan nan nan nan nan nan nan nan nan nan nan nan nan nan nan nan nan nan nan nan nan nan nan nan nan nan nan nan nan nan nan nan nan nan nan nan nan nan nan nan nan
261 258 255 nan nan 251 249 248 246 244 247 253 nan nan 252 254 253 248 250 249 247 239 236 257 258 250 246 264 257 246 240 244 245 nan nan nan nan nan nan nan nan nan nan nan nan nan nan nan nan nan nan nan nan nan nan nan nan nan nan nan nan nan nan nan nan nan nan nan nan nan nan nan nan nan nan nan nan nan nan nan nan nan nan nan nan
263 260 258 257 258 258 256 254 nan nan nan nan nan nan nan 254 255 251 248 247 243 nan nan nan nan nan nan nan 243 243 243 nan nan nan nan nan nan nan nan nan nan nan nan nan nan nan nan nan nan nan nan nan nan nan nan nan nan nan nan nan nan nan nan nan nan nan nan nan nan nan nan nan nan nan nan nan nan nan nan nan nan nan nan nan nan
263 261 260 259 259 260 263 259 nan nan nan nan nan nan nan nan nan nan nan nan nan nan nan nan nan nan nan nan nan nan nan nan nan nan nan nan nan nan nan nan nan nan nan nan nan nan nan nan nan nan nan nan nan nan nan nan nan nan nan nan nan nan nan nan nan nan nan nan nan nan nan nan nan nan nan nan nan nan nan nan nan nan nan nan nan
259 259 261 259 260 266 270 277 264 nan nan nan nan nan nan nan nan nan nan nan nan nan nan nan nan nan nan nan nan nan nan nan nan nan nan nan nan nan nan nan nan nan nan nan nan nan nan nan nan nan nan nan nan nan nan nan nan nan nan nan nan nan nan nan nan nan nan nan nan nan nan nan nan nan nan nan nan nan nan nan nan nan nan nan nan
257 257 259 261 261 263 260 256 256 nan nan nan nan nan nan nan nan nan nan nan nan nan nan nan nan nan nan nan nan nan nan nan nan nan nan nan nan nan nan nan nan nan nan nan nan nan nan nan nan nan nan nan nan nan nan nan nan nan nan nan nan nan nan nan nan nan nan nan nan nan nan nan nan nan nan nan nan nan nan nan nan nan nan nan nan
255 255 252 254 258 260 255 255 255 nan 257 255 251 246 243 nan nan 258 nan 254 nan nan nan nan nan nan nan nan nan nan nan nan nan nan nan nan nan nan nan nan nan nan nan nan nan nan nan nan nan nan nan nan nan nan nan nan nan nan nan nan nan nan nan nan nan nan nan nan nan nan nan nan nan nan nan nan nan nan nan nan nan nan nan nan nan
251 252 253 251 255 256 255 252 253 255 255 254 251 253 249 238 234 235 nan nan nan nan nan nan nan nan nan nan nan nan nan nan nan nan nan nan nan nan nan nan nan nan nan nan nan nan nan nan nan nan nan nan nan nan nan nan nan nan nan nan nan nan nan nan nan nan nan nan nan nan nan nan nan nan nan nan nan nan nan nan nan nan nan nan nan
254 253 254 253 255 252 252 254 252 251 252 254 258 259 257 255 241 nan nan nan nan nan nan nan nan nan nan nan nan nan nan nan nan nan nan nan nan nan nan nan nan nan nan nan nan nan nan nan nan nan nan nan nan nan nan nan nan nan nan nan nan nan nan nan nan nan nan nan nan nan nan nan nan nan nan nan nan nan nan nan nan nan nan nan nan
254 250 252 253 253 253 251 254 254 252 251 255 260 265 267 nan nan nan nan nan nan nan nan nan nan nan nan nan nan nan nan nan nan nan nan nan nan nan nan nan nan nan nan nan nan nan nan nan nan nan nan nan nan nan nan nan nan nan nan nan nan nan nan nan nan nan nan nan nan nan nan nan nan nan nan nan nan nan nan nan nan nan nan nan nan
nan 256 254 257 257 254 255 257 256 251 247 249 255 260 262 264 266 nan 265 nan nan nan nan nan nan nan nan nan nan nan nan nan nan nan nan nan nan nan nan nan nan nan nan nan nan nan nan nan nan nan nan nan nan nan nan nan nan nan nan nan nan nan nan nan nan nan nan nan nan nan nan nan nan nan nan nan nan nan nan nan nan nan nan nan nan
257 263 274 263 260 261 259 258 254 249 247 250 256 259 261 263 nan nan nan nan nan nan nan nan nan nan nan nan nan nan nan nan nan nan nan nan nan nan nan nan nan nan nan nan nan nan nan nan nan nan nan nan nan nan nan nan nan nan nan nan nan nan nan nan nan nan nan nan nan nan nan nan nan nan nan nan nan nan nan nan nan nan nan nan nan
nan nan nan 265 261 261 260 257 253 251 nan nan nan 260 261 nan nan nan nan nan nan nan nan nan nan nan nan nan nan nan nan nan nan nan nan nan nan nan nan nan nan nan nan nan nan nan nan nan nan nan nan nan nan nan nan nan nan nan nan nan nan nan nan nan nan nan nan nan nan nan nan nan nan nan nan nan nan nan nan nan nan nan nan nan nan
nan nan nan nan nan 259 257 255 nan nan nan nan nan nan nan nan nan nan nan nan nan nan nan nan nan nan nan nan nan nan nan nan nan nan nan nan nan nan nan nan nan nan nan nan nan nan nan nan nan nan nan nan nan nan nan nan nan nan nan nan nan nan nan nan nan nan nan nan nan nan nan nan nan nan nan nan nan nan nan nan nan nan nan nan nan
nan nan nan nan nan 262 259 258 nan nan nan nan nan nan nan nan nan nan nan nan nan nan nan nan nan nan nan nan nan nan nan nan nan nan nan nan nan nan nan nan nan nan nan nan nan nan nan nan nan nan nan nan nan nan nan nan nan nan nan nan nan nan nan nan nan nan nan nan nan nan nan nan nan nan nan nan nan nan nan nan nan nan nan nan nan
nan nan nan nan nan nan nan 263 nan nan nan nan nan nan nan nan nan nan nan nan nan nan nan nan nan nan nan nan nan nan nan nan nan nan nan nan nan nan nan nan nan nan nan nan nan nan nan nan nan nan nan nan nan nan nan nan nan nan nan nan nan nan nan nan nan nan nan nan nan nan nan nan nan nan nan nan nan nan nan nan nan nan nan nan nan
nan nan nan nan nan nan nan nan nan nan nan nan nan nan nan nan nan nan nan nan nan nan nan nan nan nan nan nan nan nan nan nan nan nan nan nan nan nan nan nan nan nan nan nan nan nan nan nan nan nan nan nan nan nan nan nan nan nan nan nan nan nan nan nan nan nan nan nan nan nan nan nan nan nan nan nan nan nan nan nan nan nan nan nan nan
nan nan nan nan nan nan nan nan nan nan nan nan nan nan nan nan nan nan nan nan nan nan nan nan nan nan nan nan nan nan nan nan nan nan nan nan nan nan nan nan nan nan nan nan nan nan nan nan nan nan nan nan nan nan nan nan nan nan nan nan nan nan nan nan nan nan nan nan nan nan nan nan nan nan nan nan nan nan nan nan nan nan nan nan nan
nan nan nan nan nan nan nan nan nan nan nan nan nan nan nan nan nan nan nan nan nan nan nan nan nan nan nan nan nan nan nan nan nan nan nan nan nan nan nan nan nan nan nan nan nan nan nan nan nan nan nan nan nan nan nan nan nan nan nan nan nan nan nan nan nan nan nan nan nan nan nan nan nan nan nan nan nan nan nan nan nan nan nan nan nan
nan nan nan nan nan nan nan nan nan nan nan nan nan nan nan nan nan nan nan nan nan nan nan nan nan nan nan nan nan nan nan nan nan nan nan nan nan nan nan nan nan nan nan nan nan nan nan nan nan nan nan nan nan nan nan nan nan nan nan nan nan nan nan nan nan nan nan nan nan nan nan nan nan nan nan nan nan nan nan nan nan nan nan nan nan
nan nan nan nan nan nan nan nan nan nan nan nan nan nan nan nan nan nan nan nan nan nan nan nan nan nan nan nan nan nan nan nan nan nan nan nan nan nan nan nan nan nan nan nan nan nan nan nan nan nan nan nan nan nan nan nan nan nan nan nan nan nan nan nan nan nan nan nan nan nan nan nan nan nan nan nan nan nan nan nan nan nan nan nan nan
nan nan nan nan nan nan nan nan nan nan nan nan nan nan nan nan nan nan nan nan nan nan nan nan nan nan nan nan nan nan nan nan nan nan nan nan nan nan nan nan nan nan nan nan nan nan nan nan nan nan nan nan nan nan nan nan nan nan nan nan nan nan nan nan nan nan nan nan nan nan nan nan nan nan nan nan nan nan nan nan nan nan nan nan nan
nan nan nan nan nan nan nan nan nan nan nan nan nan nan nan nan nan nan nan nan nan nan nan nan nan nan nan nan nan nan nan nan nan nan nan nan nan nan nan nan nan nan nan nan nan nan nan nan nan nan nan nan nan nan nan nan nan nan nan nan nan nan nan nan nan nan nan nan nan nan nan nan nan nan nan nan nan nan nan nan nan nan nan nan nan
nan nan nan nan nan nan nan nan nan nan nan nan nan nan nan nan nan nan nan nan nan nan nan nan nan nan nan nan nan nan nan nan nan nan nan nan nan nan nan nan nan nan nan nan nan nan nan nan nan nan nan nan nan nan nan nan nan nan nan nan nan nan nan nan nan nan nan nan nan nan nan nan nan nan nan nan nan nan nan nan nan nan nan nan nan
nan nan nan nan nan nan nan nan nan nan nan nan nan nan nan nan nan nan nan nan nan nan nan nan nan nan nan nan nan nan nan nan nan nan nan nan nan nan nan nan nan nan nan nan nan nan nan nan nan nan nan nan nan nan nan nan nan nan nan nan nan nan nan nan nan nan nan nan nan nan nan nan nan nan nan nan nan nan nan nan nan nan nan nan nan
nan nan nan nan nan nan nan nan nan nan nan nan nan nan nan nan nan nan nan nan nan nan nan nan nan nan nan nan nan nan nan nan nan nan nan nan nan nan nan nan nan nan nan nan nan nan nan nan nan nan nan nan nan nan nan nan nan nan nan nan nan nan nan nan nan nan nan nan nan nan nan nan nan nan nan nan nan nan nan nan nan nan nan nan nan
nan nan nan nan nan nan nan nan nan nan nan nan nan nan nan nan nan nan nan nan nan nan nan nan nan nan nan nan nan nan nan nan nan nan nan nan nan nan nan nan nan nan nan nan nan nan nan nan nan nan nan nan nan nan nan nan nan nan nan nan nan nan nan nan nan nan nan nan nan nan nan nan nan nan nan nan nan nan nan nan nan nan nan nan nan
nan nan nan nan nan nan nan nan nan nan nan nan nan nan nan nan nan nan nan nan nan nan nan nan nan nan nan nan nan nan nan nan nan nan nan nan nan nan nan nan nan nan nan nan nan nan nan nan nan nan nan nan nan nan nan nan nan nan nan nan nan nan nan nan nan nan nan nan nan nan nan nan nan nan nan nan nan nan nan nan nan nan nan nan nan